Weather in Abdreyevo

Russia / Ulyanovsk Oblast     54°01′09″N   50°01′56″E
temp.,
°C
wind,
m/s
gust,
m/s
humid.,
%
clouds,
%
prec.,
mm/h
press.,
hPa
HPBL,
m
6 march, sat
sat601:00−11wsw34920 0.0 101140
04:00−11sw47930 0.0 1012100
07:00−13wsw46957 0.0 101392
10:00−11w489527 0.0 1014268
13:00−8wnw478668 0.0 1015487
16:00−9w238984 0.0 1014100
19:00−12w2389100 0.0 101520
22:00−14wsw1181100 0.0 101520
7 march, sun
sun701:00−16sw227511 0.0 101320
04:00−17wsw22845 0.0 101320
07:00−18wsw229428 0.0 101320
10:00−14wsw249533 0.0 1013121
13:00−11sw359269 0.0 1012246
16:00−9sw489365 0.0 1011330
19:00−10ssw5119335 0.0 1009255
22:00−9ssw6149167 0.0 1008456
8 march, mon
mon801:00−8s81693100 0.1 1003662
04:00−6ssw101793100 1.4 9991038
07:00−8wsw7148288 1.0 999497
10:00−9sw7138649 1.0 1001423
13:00−6sw7137859 0.0 1002691
16:00−5ssw7138163 0.0 999722
19:00−3ssw51495100 0.6 998721
22:00−8wsw6138481 0.9 1000324
9 march, tue
tue901:00−12sw5109216 0.0 1003176
04:00−12sw599351 0.0 1004176
07:00−13wsw5119382 0.0 1005207
10:00−12wsw5109375 0.0 1007365
13:00−8w599096 0.1 1009693
16:00−8wnw478998 0.1 1010664
19:00−13wnw349228 0.0 101035
22:00−14w359547 0.0 1012102
10 march, wed
wed1001:00−15w369777 0.1 1012111
04:00−16w379789 0.2 1013161
07:00−17w479784 0.1 1013163
10:00−16wnw579590 0.1 1014324
13:00−15wnw4693100 0.0 1015401
16:00−16wnw479299 0.0 1015435
19:00−20wnw349766 0.0 101637
22:00−22wnw339833 0.0 101820